Hourly Data Report for February 15, 2004

SHERBROOKE A
QUEBEC

45°26'00.000" N
71°41'00.000" W
241.40 m
7028124
71610
YSC

Download Data

Hourly Data (February 2004)
Hourly Data Report for February 15, 2004
TIME
LST
Temp Definition
°C
Dew Point Definition
°C
Rel Hum Definition
%
Precip. Amount Definition
mm

Wind Dir Definition
10's deg

Wind Spd Definition
km/h
Visibility Definition
km
Stn Press Definition
kPa
Hmdx Definition


Wind Chill Definition


Weather Definition


00:00 -21.6 -30.4 45   32 9 15.0 98.58   -29  
01:00 -23.6 -30.8 52   29 9 15.0 98.72   -31  
02:00 -24.2 -31.6 50   30 11 15.0 98.83   -33  
03:00 -24.7 -31.9 51   33 6 15.0 98.91   -30  
04:00 -25.3 -32.6 51   28 4 15.0 98.95   -29  
05:00 -30.4 -36.4 56   24 6 15.0 99.02   -37  
06:00 -28.2 -34.1 57   28 7 15.0 99.14   -35  
07:00 -31.5 -37.8 54   26 6 4.8 99.26   -38  
08:00 -29.5 -35.3 57   26 7 24.1 99.37   -37 Clear
09:00 -25.1 -32.7 49   28 19 24.1 99.44   -37 Clear
10:00 -23.4 -32.8 42   29 15 24.1 99.49   -33 Clear
11:00 -22.1 -31.8 41   28 17 24.1 99.51   -32 Clear
12:00 -20.5 -31.5 37   27 20 24.1 99.44   -31 Clear
13:00 -19.3 -30.5 36   25 20 24.1 99.40   -30 Clear
14:00 -18.5 -30.0 36   27 24 24.1 99.35   -29 Clear
15:00 -18.0 -30.7 32   25 19 24.1 99.40   -28 Clear
16:00 -17.9 -30.6 32   24 17 24.1 99.41   -27 Clear
17:00 -18.4 -30.8 33   25 9 24.1 99.44   -25 Clear
18:00 -22.8 -32.1 42   18 4 15.0 99.48   -27  
19:00 -24.6 -32.3 49   18 4 15.0 99.54   -29  
20:00 -26.5 -33.1 54   27 4 15.0 99.61   -31  
21:00 -27.5 -34.3 52   13 6 15.0 99.70   -34  
22:00 -28.0 -35.1 51   10 6 15.0 99.74   -34  
23:00 -29.3 -35.5 55   9 6 15.0 99.76   -36  

Notes on Data Quality.

Legend

  • E = Estimated
  • M = Missing
  • NA = Not Available*
  • [empty] = Indicates an unobserved value
Date modified: